Location: San Martino di Castrozza
(46.2667°N, 11.8000°E)
Time: 02:41:44
(UTC+00:00)

Cosmos 1656 Rocket - Pass Details

Date: 23 April 2021
Orbit: 795 x 847 km, 71.1° (Epoch: 15 May)

Event Time Altitude Azimuth Distance (km) Brightness Sun altitude
Exits shadow 03:31:08 - 222° (SW) 2,632 5.7 -7.3°
Reaches altitude 10° 03:31:51 10° 224° (SW) 2,362 5.4 -7.2°
Maximum altitude 03:37:07 54° 301° (WNW) 973 3.9 -6.4°
Drops below altitude 10° 03:42:29 10° 19° (NNE) 2,399 6.8 -5.6°
Sets 03:44:59 0° 24° (NNE) 3,342 7.6 -5.2°
